International Virtual Aviation Organisation

Eastern Europe and Northern Asia MCD

 

Карточка аэропорта URRP

Внимание!
Информация на этой странице в стадии наполнения.
Если вы не увидели какой-то информации, или заметили неточность - пожалуйста сообщите нам!
Спасибо!
Команда RU-STAFF
Название аэропортаПлатов
Название аэропорта (англ.)Platov
Превышение282 ft. (86 m.)
Координаты47°29.634', 39°55.482'
Высота перехода900
Эшелон перехода050
Коды ответчика1000-1017
Зона ОрВДРостов-на-Дону РПИ (URRV)
Данные METARURRP 101030Z 02006MPS CAVOK 12/M02 Q1020 R05/CLRD70 TEMPO 02010G16MPS RMK QFE760/1014
Проноз погоды (TAF)URRP 100755Z 1009/1109 01006G12MPS 9999 SCT016 SCT030CB TEMPO 1009/1015 35009G14MPS BECMG 1015/1017 03003G10MPS
NOTAMshow/hide NOTAM
AWOS   TABLE

Информация о ВПП

ВПП Длина ВПП (м.) Покрытие Курс ВПП Частота ILS
053900Цементобетон46111.5
233900Цементобетон226110.9

Диспетчерские позиции

Позывной Наименование органа УВД Частота
URRP_TWRПлатов-вышка119.7
URRP_R_APPПлатов - Круг121.2
URRP_APPПлатов-подход128.2
URRP_GNDПлатов - руление119.0
URRP_DELПлатов-деливери127.1



Спутниковое изображение